Overview Statistics Trail Chart Weather Telemetry Raw packets
 

This is the latest recevied weather packets stored in our database for station/object EA3CH. If no packets are shown the sender has not sent any weather packets the latest 10 day(s).

<< 31 32 33 34 35 36 37 >>
Time Temp. Humidity Pressure Rain* Wind** Luminosity Snow
1787970604 14.44° C 78% 1020.1 hPa 0 mm - 0 W/m² -
1787969704 15° C 76% 1020.2 hPa 0 mm - 0 W/m² -
1787968805 16.11° C 62% 1020.1 hPa 0 mm - 0 W/m² -
1787968803 15° C 73% 1020.3 hPa 0 mm - 0 W/m² -
1787967905 16.11° C 58% 1020.2 hPa 0 mm - 0 W/m² -
1787967904 15° C 71% 1020.5 hPa 0 mm - 0 W/m² -
1787967005 15° C 63% 1020.3 hPa 0 mm - 0 W/m² -
1787967004 13.89° C 74% 1020.5 hPa 0 mm - 0 W/m² -
1787966106 14.44° C 63% 1020.4 hPa 0 mm - 0 W/m² -
1787966103 13.89° C 73% 1020.5 hPa 0 mm - 0 W/m² -
1787965204 14.44° C 74% 1020.7 hPa 0 mm - 0 W/m² -
1787964316 15.56° C 61% 1020.5 hPa 0 mm - 0 W/m² -
1787964303 14.44° C 72% 1020.6 hPa 0 mm - 0 W/m² -
1787963404 15° C 71% 1020.7 hPa 0 mm - 0 W/m² -
1787962505 15.56° C 60% 1020.7 hPa 0 mm - 0 W/m² -
1787962504 15° C 69% 1020.9 hPa 0 mm - 0 W/m² -
1787961603 15.56° C 72% 1021 hPa 0 mm - 0 W/m² -
1787960706 16.11° C 57% 1020.8 hPa 0 mm - 0 W/m² -
1787960704 15.56° C 67% 1020.9 hPa 0 mm - 0 W/m² -
1787959804 16.11° C 53% 1020.8 hPa 0 mm - 0 W/m² -
1787959804 15.56° C 64% 1021 hPa 0 mm - 0 W/m² -
1787958904 15° C 67% 1020.8 hPa 0 mm - 0 W/m² -
1787958005 15.56° C 56% 1020.4 hPa 0 mm - 0 W/m² -
1787958004 15° C 67% 1020.6 hPa 0 mm - 0 W/m² -
1787957104 15° C 65% 1020.6 hPa 0 mm - 0 W/m² -

* Rain latest hour (hover to see other rain measurements)
** Current wind speed in m/s (hover to see current wind gust speed)